Showing default

TELKOMSAT 113BT, 58995

Orbit data source: Space-Track

TELKOMSAT 113BT, 58995 is a payload satellite owned by Telkom (ID) in GEO that was launched on Tue, 20 Feb 2024 UTC via an FALCON 9 launch vehicle from the Air Force Eastern Test Range (AFETR). Payloads include a variety of satellites, spacecraft, and rockets equipped with specific instruments for various scientific and technological missions. These include communications satellites like Starlink; space stations such as the ISS; scientific satellites like the Hubble; Earth observation satellites from companies like Planet Labs, Umbra, and HawkEye 360; GPS; miniature CubeSats for education and research; and military/defense satellites.

Not visible in the next 10 days
TELKOMSAT 113BT details
Identifier
58995, 2024-035A
Orbit
GEO
Last TLE update9 hours ago
Origin
Flag of IDTelkom (ID / INDO)
ManufacturerThales Alenia
MissionOperational Commercial Communications
Bus & MotorSPACEBUS 4000B2, S400
Mass4,000 kg wet, ~2,500 kg dry
Launch date (UTC)
2024-02-20 (10 months ago)
Launch vehicle
FALCON 9
Launch site
Air Force Eastern Test Range (AFETR)
Object type
Payload
Rocket body
Debris
Shape & HBRBox + 2 Pan, 30 m
Radar Cross Section48.465 m²

Expand to show TLE details & history

TLE from 9 hours ago
0 TELKOMSAT 113BT
1 58995U 24035A   24356.90049227 -.00000344  00000-0  00000-0 0  9995
2 58995   0.0142  44.6208 0001207 222.4299 261.0273  1.00272308  3152
Epoch: 2024-12-21T21:36Z
Definitive object data (Epoch: 2024-12-21T21:36:42.532Z)
Latitude0.01768°
Longitude112.94341°
Altitude35,786.736 km
Speed3.075 km/s
True Right ascension11h 12m 15s
True Declination0° 01' 04"
Sunlit
Object was in daylight at TLE epoch
Visualization TLE readout
Latitude-0.02834°
Longitude-115.39817°
Altitude35,781.695 km
Speed3.075 km/s
Apparent Right ascension19h 43m 52s
Apparent Declination-5° 04' 14"
Sunlit
Object is in daylight
Visualization observer readout
Local Sidereal Time05:26:33
Azimuth309.319° NW
Elevation-43.444°
Doppler factor1
Orbital elements
Apogee altitude35,792.608 km
Perigee altitude35,782.429 km
Semi-major axis42,165.656 km
Eccentricity0.0001207
Inclination0.0142°
RAAN44.6208°
Arg. of periapsis222.4299°
True anomaly261.01364°
Mean anomaly261.0273°
Eccentric anomaly261.02047°
Mean motion0.25067 °/min
BSTARUnknown
Orbital period1436.14 mins
Loading historical data...
58995 neighbors
Authenticating...
Loading maneuver chart data...
Loading historical data...
Loading historical data...
Loading historical data...
Loading historical data...
Loading historical data...
Loading historical data...
Loading historical data...
Other satellites on launch #35 in the year 2024 (2024-02-20 UTC)

TELKOMSAT 113BT Visibility forecast

Observer location: undefined°, undefined

TELKOMSAT 113BT is not visible in the next 10 days
Span
Click to sort rows by Start time (UTC) header in descending order
Start Az.
Max El. time (UTC)
Max El. Az.
Max El.
End time (UTC)
End Az.
|